Regional Weather Roundup
Issued by NWS

Home | Current Version | Previous Version | Text Only | Print | Product List | Glossary Off
Versions: 1 2 3 4 5 6 7 8 9 10 11 12 13 14 15 16 17 18 19 20 21 22 23 24 25 26 27 28 29 30 31 32 33 34 35 36 37 38 39 40 41 42 43 44 45 46 47 48 49 50

000
ASUS43 KOAX 250802
RWRNE

WEATHER ROUNDUP FOR NEBRASKA
NATIONAL WEATHER SERVICE OMAHA NE
300 AM CDT SAT OCT 25 2014

NOTES: SATELLITE DATA IS BEING USED TO AUGMENT CLOUD COVER ABOVE
       12000 FEET.
       "FAIR" INDICATES FEW OR NO CLOUDS BELOW 12,000 FEET WITH NO
       SIGNIFICANT WEATHER AND/OR OBSTRUCTIONS TO VISIBILITY.

  * THESE STATIONS DO NOT REPORT WEATHER SUCH AS RAIN...SNOW OR FOG.

NEZ001>004-019>022-054>056-250900-
NEBRASKA PANHANDLE

CITY           SKY/WX    TMP DP  RH WIND       PRES   REMARKS
SCOTTSBLUFF    CLEAR     45  32  60 CALM      30.14S
ALLIANCE       CLEAR     34  31  88 W6        30.13S WCI  29
CHADRON        CLEAR     34  31  88 CALM      30.16R
KIMBALL        CLEAR     44  29  57 W7        30.17S
SIDNEY         CLEAR     44  32  62 W7        30.16R
$$

NEZ057>060-069>072-079>082-250900-
SOUTHWEST NEBRASKA

CITY           SKY/WX    TMP DP  RH WIND       PRES   REMARKS
NORTH PLATTE   CLEAR     39  35  86 N3        30.09R
IMPERIAL       CLEAR     49  34  56 W5        30.09F
LEXINGTON      CLEAR     44  40  88 NW3       30.07R
MCCOOK         CLEAR     44  37  76 SW8       30.07S
$$

NEZ005>010-023>029-035>040-094-250900-
NORTH CENTRAL NEBRASKA

CITY           SKY/WX    TMP DP  RH WIND       PRES   REMARKS
VALENTINE      CLEAR     50  37  61 NE9       30.11R
AINSWORTH      CLEAR     46  35  65 N5        30.10R
BROKEN BOW     CLEAR     42  38  85 NW3       30.07S
O`NEILL        CLEAR     49  42  76 N8        30.10R
ORD            CLEAR     40  36  86 CALM      30.06R
THEDFORD       CLEAR     42  35  74 CALM      30.10R
$$

NEZ041-046>049-061>064-073>077-083>087-250900-
SOUTH CENTRAL NEBRASKA

CITY           SKY/WX    TMP DP  RH WIND       PRES   REMARKS
GRAND ISLAND   CLEAR     47  43  86 W3        30.06R
AURORA         CLEAR     47  43  87 CALM      30.06R
HASTINGS       CLEAR     48  42  80 CALM      30.05S
HEBRON         CLEAR     50  47  90 CALM      30.04R
HOLDREGE       CLEAR     45  40  85 CALM      30.06S
KEARNEY *      CLEAR     46  39  76 W7        30.06S
YORK           CLEAR     48  45  87 W6        30.05S
$$

NEZ011>018-030>034-042>045-250900-
NORTHEAST NEBRASKA

CITY           SKY/WX    TMP DP  RH WIND       PRES   REMARKS
NORFOLK        CLEAR     45  42  89 NW5       30.05R
ALBION         CLEAR     42  38  88 NW5       30.06R
BLAIR          CLEAR     57  46  65 N6        30.02R
COLUMBUS *     CLEAR     45  39  81 SW3       30.06R
FREMONT        CLEAR     49  46  88 CALM      30.03S
TEKAMAH        CLEAR     49  45  86 CALM      30.02S
WAYNE          CLEAR     43  41  93 CALM      30.04R
$$

NEZ050>053-065>068-078-088>093-250900-
SOUTHEAST NEBRASKA

CITY           SKY/WX    TMP DP  RH WIND       PRES   REMARKS
LINCOLN        CLEAR     48  45  89 N5        30.04R
OMAHA EPPLEY   CLEAR     50  48  93 CALM      30.03R
BEATRICE       CLEAR     47  46  99 N3        30.03S
FALLS CITY     CLEAR     55  53  93 SW5       30.01S FOG
NEBRASKA CITY  CLEAR     57  47  70 N5        30.02R
PLATTSMOUTH    CLEAR     55  49  81 NW3       30.02R
$$

NEZ044-045-051>053-067-250900-
OMAHA AREA

CITY           SKY/WX    TMP DP  RH WIND       PRES   REMARKS
OMAHA EPPLEY   CLEAR     50  48  93 CALM      30.03R
BLAIR          CLEAR     57  46  65 N6        30.02R
FREMONT        CLEAR     49  46  88 CALM      30.03S
PLATTSMOUTH    CLEAR     55  49  81 NW3       30.02R
WAHOO          FAIR      48  44  86 NW5       30.02S
$$



USA.gov is the U.S. government's official web portal to all federal, state and local government web resources and services.